WetterOnline ( http://www.wetteronline.de )

Wetter aktuell Altusried

Aktuelles Wetter: Kempten (705m)

6-stündlich | Neueste Meldungen
Ortszeit Temperatur Wetter
Mo, 18.06. 8:00 14.5° C bedeckt
Mo, 18.06. 2:00 14.6° C Sprühregen
So, 17.06. 20:00 15.3° C bewölkt
So, 17.06. 14:00 20.3° C wolkig
So, 17.06. 8:00 15.5° C wolkig
So, 17.06. 2:00 12.0° C leicht bewölkt
Sa, 16.06. 20:00 22.0° C wolkenlos
Sa, 16.06. 14:00 22.0° C wolkenlos
Ortszeit Temperatur Wetter
Mo, 18.06. 11:00 17.7° C bewölkt
Mo, 18.06. 10:50 17.7° C bewölkt
Mo, 18.06. 10:40 17.2° C bewölkt
Mo, 18.06. 10:30 16.8° C bedeckt
Mo, 18.06. 10:20 16.8° C bedeckt
Mo, 18.06. 10:10 17.3° C bedeckt
Mo, 18.06. 10:00 16.9° C bewölkt
Mo, 18.06. 9:30 16.4° C bewölkt
Mo, 18.06. 9:00 16.3° C bewölkt
Mo, 18.06. 8:30 15.5° C wolkig
Mo, 18.06. 8:00 14.5° C bedeckt
Ortszeit Relative Feuchte Sichtweite
Mo, 18.06. 8:00 87% 12 km
Mo, 18.06. 2:00 96% 4.4 km
So, 17.06. 20:00 93% 15 km
So, 17.06. 14:00 61% 23 km
So, 17.06. 8:00 68% 22 km
So, 17.06. 2:00 90% 13 km
Sa, 16.06. 20:00 37% 35 km
Sa, 16.06. 14:00 35% 35 km
Ortszeit Relative Feuchte Sichtweite
Mo, 18.06. 11:00 66% 27 km
Mo, 18.06. 10:50 66% -
Mo, 18.06. 10:40 64% -
Mo, 18.06. 10:30 60% 30 km
Mo, 18.06. 10:20 60% -
Mo, 18.06. 10:10 61% -
Mo, 18.06. 10:00 67% 25 km
Mo, 18.06. 9:30 72% 20 km
Mo, 18.06. 9:00 71% 20 km
Mo, 18.06. 8:30 82% 13 km
Mo, 18.06. 8:00 87% 12 km
Ortszeit Niederschlagsmenge Niederschlagsart
Mo, 18.06. 8:00 4 l/m2 in 12 Std. Regen
Mo, 18.06. 2:00 2 l/m2 in 6 Std. Regen
So, 17.06. 20:00 20 l/m2 in 12 Std. Regenschauer
So, 17.06. 14:00 0.0 l/m2 in 6 Std. -
So, 17.06. 8:00 0.0 l/m2 in 12 Std. -
So, 17.06. 2:00 0.0 l/m2 in 6 Std. -
Sa, 16.06. 20:00 0.0 l/m2 in 12 Std. -
Sa, 16.06. 14:00 0.0 l/m2 in 6 Std. -
Ortszeit Niederschlagsmenge Niederschlagsart
Mo, 18.06. 11:00 0.1 l/m2 in 1 Std. Niederschlag
Mo, 18.06. 10:50 keine Meldung -
Mo, 18.06. 10:40 keine Meldung -
Mo, 18.06. 10:30 0.1 l/m2 in 1 Std. Regen
Mo, 18.06. 10:20 keine Meldung -
Mo, 18.06. 10:10 keine Meldung -
Mo, 18.06. 10:00 0.0 l/m2 in 1 Std. -
Mo, 18.06. 9:30 0.0 l/m2 in 1 Std. -
Mo, 18.06. 9:00 0.0 l/m2 in 1 Std. -
Mo, 18.06. 8:30 0.0 l/m2 in 1 Std. -
Mo, 18.06. 8:00 0.0 l/m2 in 1 Std. Regen
Ortszeit Stärke Spitze Richtung
km/h Bft. km/h Grad Sektor
Mo, 18.06. 8:00 0 0 18 - -
Mo, 18.06. 2:00 0 0 11 - -
So, 17.06. 20:00 7 2 29 180° S
So, 17.06. 14:00 11 2 22 340° N
So, 17.06. 8:00 4 1 18 170° S
So, 17.06. 2:00 7 2 11 120° SO
Sa, 16.06. 20:00 7 2 18 300° NW
Sa, 16.06. 14:00 7 2 18 350° N
Ortszeit Stärke Spitze Richtung
km/h Bft. km/h Grad Sektor
Mo, 18.06. 11:00 7 2 11 350° N
Mo, 18.06. 10:50 7 2 - - -
Mo, 18.06. 10:40 6 1 - - -
Mo, 18.06. 10:30 6 1 9 - -
Mo, 18.06. 10:20 6 1 - - -
Mo, 18.06. 10:10 4 1 - - -
Mo, 18.06. 10:00 4 1 7 340° N
Mo, 18.06. 9:30 4 1 7 - -
Mo, 18.06. 9:00 0 0 7 - -
Mo, 18.06. 8:30 4 1 7 80° O
Mo, 18.06. 8:00 0 0 7 - -
Ortszeit Untergrenze Bedeckung Gattung
total tief tief mittel hoch
Mo, 18.06. 8:00 1110 m 8/8 8/8 - - -
Mo, 18.06. 2:00 1080 m 8/8 8/8 - - -
So, 17.06. 20:00 1200 m 8/8 7/8 - - -
So, 17.06. 14:00 990 m 7/8 5/8 - - -
So, 17.06. 8:00 2700 m 6/8 6/8 - - -
So, 17.06. 2:00 2100 m 2/8 1/8 - - -
Sa, 16.06. 20:00 8400 m 0/8 0/8 - - -
Sa, 16.06. 14:00 - 0/8 0/8 - - -
Ortszeit Bedeckungsgrad in Achtel und Wolkenuntergrenze
Mo, 18.06. 11:00 5(720m) 7(2700m)
Mo, 18.06. 10:50 5(720m) 7(2700m)
Mo, 18.06. 10:40 4(690m) 7(2700m)
Mo, 18.06. 10:30 3(630m) 3(1500m) 8(2700m)
Mo, 18.06. 10:20 3(630m) 3(1500m) 8(2700m)
Mo, 18.06. 10:10 4(630m) 6(1500m) 8(2700m)
Mo, 18.06. 10:00 1(1230m) 7(1500m) 8(2700m)
Mo, 18.06. 9:30 3(1380m) 7(1500m)
Mo, 18.06. 9:00 1(1050m) 7(1500m)
Mo, 18.06. 8:30 2(210m) 3(1080m) 6(1470m)
Mo, 18.06. 8:00 2(1110m) 3(1800m) 8(2700m)
Ortszeit Luftdruck NN (hPa) Tendenz (hPa in 3 Std.)
Mo, 18.06. 8:00 1022 + 0,6
Mo, 18.06. 2:00 1021 + 0,5
So, 17.06. 20:00 1019 + 1,1
So, 17.06. 14:00 1016 - 0,4
So, 17.06. 8:00 1017 + 0,7
So, 17.06. 2:00 1017 + 0,2
Sa, 16.06. 20:00 1013 + 0,4
Sa, 16.06. 14:00 1013 - 0,4
Ortszeit Luftdruck NN (hPa) Tendenz (hPa in 3 Std.)
Mo, 18.06. 11:00 1022 + 0,4
Mo, 18.06. 10:50 1022 keine Meldung
Mo, 18.06. 10:40 1022 keine Meldung
Mo, 18.06. 10:30 1022 + 0,2
Mo, 18.06. 10:20 1022 keine Meldung
Mo, 18.06. 10:10 1022 keine Meldung
Mo, 18.06. 10:00 1022 + 0,4
Mo, 18.06. 9:30 1022 + 0,5
Mo, 18.06. 9:00 1022 + 0,6
Mo, 18.06. 8:30 1022 + 0,3
Mo, 18.06. 8:00 1022 + 0,6
Ortszeit Schneehöhe (cm)
Mo, 18.06. 8:00 -
Mo, 18.06. 2:00 -
So, 17.06. 20:00 -
So, 17.06. 14:00 -
So, 17.06. 8:00 -
So, 17.06. 2:00 -
Sa, 16.06. 20:00 -
Sa, 16.06. 14:00 -
Ortszeit Schneehöhe (cm)
Mo, 18.06. 11:00 -
Mo, 18.06. 10:50 -
Mo, 18.06. 10:40 -
Mo, 18.06. 10:30 -
Mo, 18.06. 10:20 -
Mo, 18.06. 10:10 -
Mo, 18.06. 10:00 -
Mo, 18.06. 9:30 -
Mo, 18.06. 9:00 -
Mo, 18.06. 8:30 -
Mo, 18.06. 8:00 -
Link zu dieser Seite / Seite empfehlen

Das Wetter in ...